Location: Eymir
(36.7333°N, 29.7833°E)
Time: 18:44:40
(UTC+00:00)

CZ-4 R/B - Pass Details

Date: 14 January 2026
Orbit: 676 x 743 km, 98.7° (Epoch: 17 February)

Event Time Altitude Azimuth Distance (km) Brightness Sun altitude
Rises 03:31:40 0° 8° (N) 3,096 7.1 -19.9°
Reaches altitude 10° 03:33:56 10° 4° (N) 2,185 6.3 -19.5°
Maximum altitude 03:38:38 58° 287° (WNW) 838 3.8 -18.6°
Drops below altitude 10° 03:43:23 10° 209° (SSW) 2,212 6.2 -17.7°
Sets 03:45:41 0° 205° (SSW) 3,138 7.1 -17.2°
